Regional Weather Roundup
Issued by NWS

Home | Current Version | Previous Version | Text Only | Print | Product List | Glossary Off
Versions: 1 2 3 4 5 6 7 8 9 10 11 12 13 14 15 16 17 18 19 20 21 22 23 24 25 26 27 28 29 30 31 32 33 34 35 36 37 38 39 40 41 42 43 44 45 46 47 48 49 50

000
ASUS43 KFSD 231102
RWRSD

WEATHER ROUNDUP FOR SOUTH DAKOTA
NATIONAL WEATHER SERVICE SIOUX FALLS SD
600 AM CDT WED APR 23 2014

NOTE: "FAIR" INDICATES FEW OR NO CLOUDS BELOW 12,000 FEET WITH NO
SIGNIFICANT WEATHER AND/OR OBSTRUCTIONS TO VISIBILITY.


SDZ001>005-009-010-012>017-231200-
NORTHWEST AND NORTH CENTRAL SOUTH DAKOTA

CITY           SKY/WX    TMP DP  RH WIND       PRES   REMARKS
MOBRIDGE       CLOUDY    52  40  63 SE17G30   29.58F
$$

SDZ012>016-024>037-041>051-057-063-072>074-231200-
SOUTHWEST AND SOUTH CENTRAL SOUTH DAKOTA

CITY           SKY/WX    TMP DP  RH WIND       PRES   REMARKS
RAPID CTY ARPT CLOUDY    53  41  63 S8        29.46R
PIERRE         CLOUDY    54  34  46 SE30G41   29.54F
CUSTER         MOCLDY    54  37  52 SW8       29.56R
ELLSWORTH AFB  CLOUDY    55  42  60 S9        29.44S
PHILIP         MOCLDY    55  36  48 E13       29.46F
PINE RIDGE     LGT RAIN  59  47  64 SE20G41   29.45S
WINNER         FAIR      56  31  38 SE23G32   29.58F
$$

SDZ004>011-016>023-039-040-231200-
NORTHEAST SOUTH DAKOTA

CITY           SKY/WX    TMP DP  RH WIND       PRES   REMARKS
ABERDEEN       CLOUDY    50  37  61 SE18G26   29.76S
WATERTOWN      LGT RAIN  46  38  73 SE14G24   29.83F
SISSETON         N/A     43  40  89 SE18G30   29.89F
$$

SDZ017-020-022-023-036>040-048>070-231200-
SOUTHEAST SOUTH DAKOTA

CITY           SKY/WX    TMP DP  RH WIND       PRES   REMARKS
SIOUX FALLS    LGT RAIN  50  37  61 SE22G29   29.91S
HURON          CLOUDY    54  34  46 SE23G38   29.72S
CHAMBERLAIN      N/A     54  34  46 SE28G38   29.63F
MITCHELL       MOCLDY    51  36  56 SE30G38   29.75F
YANKTON        MOCLDY    52  32  46 E15G23    29.83F
$$

ABBREVIATIONS USED IN REMARKS
   TC - TEMPERATURE IN CELSIUS
  WCI - WIND CHILL INDEX
   HX - HEAT INDEX
  VSB - VISIBILITY




USA.gov is the U.S. government's official web portal to all federal, state and local government web resources and services.